This is the latest recevied weather packets stored in our database for station/object K0WXC-1. If no packets are shown the sender has not sent any weather packets the latest 10 day(s).
| Time | Temp. | Humidity | Pressure | Rain* | Wind** | Luminosity | Snow |
|---|---|---|---|---|---|---|---|
| 1777748188 | 14.44° C | 37% | 1006.9 hPa | 0 mm | 0.45 m/s, 81° | - | - |
| 1777748128 | 15° C | 31% | 1007 hPa | 0 mm | 3.58 m/s, 296° | - | - |
| 1777748068 | 15° C | 31% | 1007 hPa | 0 mm | 3.58 m/s, 296° | - | - |
| 1777748008 | 15° C | 31% | 1007 hPa | 0 mm | 3.58 m/s, 296° | - | - |
| 1777747948 | 15° C | 31% | 1007 hPa | 0 mm | 3.58 m/s, 296° | - | - |
| 1777747888 | 15° C | 31% | 1007 hPa | 0 mm | 3.58 m/s, 296° | - | - |
| 1777747828 | 15° C | 34% | 1006.9 hPa | 0 mm | 2.68 m/s, 282° | - | - |
| 1777747768 | 15° C | 34% | 1006.9 hPa | 0 mm | 2.68 m/s, 282° | - | - |
| 1777747708 | 15° C | 34% | 1006.9 hPa | 0 mm | 2.68 m/s, 282° | - | - |
| 1777747648 | 15° C | 34% | 1006.9 hPa | 0 mm | 2.68 m/s, 282° | - | - |
| 1777747588 | 15° C | 34% | 1006.9 hPa | 0 mm | 2.68 m/s, 282° | - | - |
| 1777747528 | 15° C | 36% | 1006.8 hPa | 0 mm | 1.79 m/s, 285° | - | - |
| 1777747468 | 15° C | 36% | 1006.8 hPa | 0 mm | 1.79 m/s, 285° | - | - |
| 1777747408 | 15° C | 36% | 1006.8 hPa | 0 mm | 1.79 m/s, 285° | - | - |
| 1777747348 | 15° C | 36% | 1006.8 hPa | 0 mm | 1.79 m/s, 285° | - | - |
| 1777747288 | 15° C | 36% | 1006.8 hPa | 0 mm | 1.79 m/s, 285° | - | - |
| 1777747228 | 14.44° C | 35% | 1006.9 hPa | 0 mm | 1.34 m/s, 252° | - | - |
| 1777747168 | 14.44° C | 35% | 1006.9 hPa | 0 mm | 1.34 m/s, 252° | - | - |
| 1777747108 | 14.44° C | 35% | 1006.9 hPa | 0 mm | 1.34 m/s, 252° | - | - |
| 1777747048 | 14.44° C | 35% | 1006.9 hPa | 0 mm | 1.34 m/s, 252° | - | - |
| 1777746988 | 14.44° C | 35% | 1006.9 hPa | 0 mm | 1.34 m/s, 252° | - | - |
| 1777746928 | 15° C | 30% | 1006.9 hPa | 0 mm | 1.34 m/s, 7° | - | - |
| 1777746868 | 15° C | 30% | 1006.9 hPa | 0 mm | 1.34 m/s, 7° | - | - |
| 1777746808 | 15° C | 30% | 1006.9 hPa | 0 mm | 1.34 m/s, 7° | - | - |
| 1777746748 | 15° C | 30% | 1006.9 hPa | 0 mm | 1.34 m/s, 7° | - | - |
* Rain latest hour (hover to see other rain measurements)
** Current wind speed in m/s (hover to see current wind gust speed)